This is the latest recevied weather packets stored in our database for station/object SP1BMW-13. If no packets are shown the sender has not sent any weather packets the latest 10 day(s).
| Time | Temp. | Humidity | Pressure | Rain* | Wind** | Luminosity | Snow |
|---|---|---|---|---|---|---|---|
| 1777641742 | 23.33° C | 31% | 1026 hPa | 0 mm | 1.34 m/s, 42° | 556 W/m² | - |
| 1777641682 | 23.33° C | 33% | 1026.1 hPa | 0 mm | 0.89 m/s, 49° | 558 W/m² | - |
| 1777641622 | 23.33° C | 31% | 1025.9 hPa | 0 mm | 1.79 m/s, 35° | 563 W/m² | - |
| 1777641562 | 23.33° C | 32% | 1025.9 hPa | 0 mm | 0 m/s | 565 W/m² | - |
| 1777641502 | 23.33° C | 32% | 1026 hPa | 0 mm | 0.89 m/s, 42° | 566 W/m² | - |
| 1777641442 | 23.33° C | 32% | 1026 hPa | 0 mm | 0.89 m/s, 53° | 569 W/m² | - |
| 1777641382 | 22.78° C | 33% | 1025.9 hPa | 0 mm | 0.89 m/s, 296° | 571 W/m² | - |
| 1777641322 | 22.78° C | 33% | 1026.1 hPa | 0 mm | 1.79 m/s, 318° | 572 W/m² | - |
| 1777641262 | 22.78° C | 32% | 1026.1 hPa | 0 mm | 0.89 m/s, 317° | 573 W/m² | - |
| 1777641202 | 22.78° C | 34% | 1026 hPa | 0 mm | 0.89 m/s, 343° | 573 W/m² | - |
| 1777641142 | 22.78° C | 33% | 1026.1 hPa | 0 mm | 0.45 m/s, 262° | 576 W/m² | - |
| 1777641082 | 22.78° C | 32% | 1026.1 hPa | 0 mm | 0.89 m/s, 21° | 578 W/m² | - |
| 1777641022 | 22.78° C | 31% | 1026 hPa | 0 mm | 2.24 m/s, 42° | 581 W/m² | - |
| 1777640962 | 22.78° C | 32% | 1026.1 hPa | 0 mm | 0.45 m/s, 49° | 581 W/m² | - |
| 1777640902 | 22.78° C | 32% | 1026.2 hPa | 0 mm | 1.79 m/s, 36° | 583 W/m² | - |
| 1777640842 | 22.78° C | 34% | 1026.2 hPa | 0 mm | 0.89 m/s, 313° | 585 W/m² | - |
| 1777640783 | 22.78° C | 34% | 1026.2 hPa | 0 mm | 0.45 m/s, 64° | 587 W/m² | - |
| 1777640723 | 22.78° C | 34% | 1026.1 hPa | 0 mm | 0.89 m/s, 13° | 590 W/m² | - |
| 1777640662 | 22.78° C | 32% | 1026.1 hPa | 0 mm | 0.89 m/s, 337° | 591 W/m² | - |
| 1777640602 | 22.78° C | 35% | 1026.1 hPa | 0 mm | 0.89 m/s, 283° | 592 W/m² | - |
| 1777640542 | 22.78° C | 34% | 1026.2 hPa | 0 mm | 0.45 m/s, 65° | 585 W/m² | - |
| 1777640482 | 22.78° C | 32% | 1026.2 hPa | 0 mm | 1.34 m/s, 65° | 592 W/m² | - |
| 1777640422 | 22.78° C | 33% | 1026.2 hPa | 0 mm | 0.89 m/s, 26° | 597 W/m² | - |
| 1777640362 | 22.78° C | 33% | 1026.4 hPa | 0 mm | 0.89 m/s, 42° | 599 W/m² | - |
| 1777640302 | 22.78° C | 33% | 1026.4 hPa | 0 mm | 1.34 m/s, 33° | 600 W/m² | - |
* Rain latest hour (hover to see other rain measurements)
** Current wind speed in m/s (hover to see current wind gust speed)